Location: Bill Sadowski Park
(25.6087°N, 80.3181°W)
Time: 09:38:56
(UTC-04:00)

N. Korean satellite - Visible Passes

Search period start: 23 October 2017 00:00
Search period end: 02 November 2017 00:00
Orbit: 459 x 517 km, 97.2° (Epoch: 22 October)

Date Brightness Start Highest point End Pass type
(mag) Time Alt. Az. Time Alt. Az. Time Alt. Az.
23 Oct 10.1 20:33:42 10° WSW 20:35:01 12° W 20:36:18 10° WNW visible
24 Oct 8.9 20:08:38 10° SSW 20:11:36 25° W 20:14:33 10° NW visible
25 Oct 7.0 19:44:46 10° S 19:48:14 61° W 19:51:40 10° NNW visible
26 Oct 6.6 19:21:31 10° SSE 19:24:55 52° ENE 19:28:18 10° N visible
27 Oct 10.1 20:33:56 10° WSW 20:35:05 11° W 20:36:14 10° WNW visible
28 Oct 8.9 20:08:45 10° SSW 20:11:39 25° W 20:14:33 10° NW visible
29 Oct 7.0 19:44:50 10° S 19:48:16 60° W 19:51:41 10° NNW visible
30 Oct 6.5 19:21:34 10° SSE 19:24:57 52° ENE 19:28:18 10° N visible
31 Oct 7.7 18:58:55 10° SE 19:01:39 22° ENE 19:04:24 10° NNE visible
31 Oct 10.1 20:34:04 10° WSW 20:35:06 11° W 20:36:08 10° WNW visible
01 Nov 8.9 20:08:47 10° SSW 20:11:39 24° W 20:14:31 10° NW visible
